Clinton-Sherman, OK

7:14 PM CST on January 20, 2018 (GMT -0600)
Clinton-Sherman

Weather History for KCSM - January, 2013

Change the Weather History Date:

Sunday, January 20, 2013

  Actual Average Record
Temperature  
Mean Temperature 46 °F -  
Max Temperature 61 °F 48 °F 72 °F (2005)
Min Temperature 30 °F 27 °F 19 °F (2011)
Degree Days  
Heating Degree Days 20    
Moisture  
Dew Point 27 °F    
Average Humidity 54    
Maximum Humidity 69    
Minimum Humidity 31    
Precipitation  
Precipitation 0.00 in - - ()
Sea Level Pressure  
Sea Level Pressure 30.20 in    
Wind  
Wind Speed 8 mph (NNE)    
Max Wind Speed 26 mph    
Max Gust Speed 30 mph    
Visibility 10 miles    
Events      
Averages and records for this station are not official NWS values.
T = Trace of Precipitation, MM = Missing Value Source: NWS Daily Summary

Daily Weather History Graph

Daily Weather History Graph

Search for Another Location

Airport or City:

Trip Planner

Search our weather history database for the weather conditions in past years. The results will help you decide how hot, cold, wet, or windy it might be!

Date:

Astronomy

Jan. 20, 2013 Rise Set
Actual Time 7:43 AM CST 5:52 PM CST
Civil Twilight 7:15 AM CST 6:20 PM CST
Nautical Twilight 6:44 AM CST 6:51 PM CST
Astronomical Twilight 6:14 AM CST 7:21 PM CST
Moon 12:54 PM CST (1/20) 2:18 AM CST (1/20)
Length of Visible Light 11h 04m
Length of Day
10h 09m
Waxing Gibbous, 66% of the Moon is Illuminated
Jan 20
Waxing Gibbous
Jan 26
Full
Feb 3
Last Quarter
Feb 10
New
Feb 17
First Quarter

Hourly Weather History & Observations

Time (CST) Temp. Windchill Dew Point Humidity Pressure Visibility Wind Dir Wind Speed Gust Speed Precip Events Conditions
12:53 AM 35.1 °F 29.3 °F 24.1 °F 64% 30.25 in 10.0 mi North 6.9 mph - N/A   Clear
1:53 AM 36.0 °F 29.6 °F 24.1 °F 62% 30.25 in 10.0 mi NNW 8.1 mph - N/A   Clear
2:53 AM 33.1 °F 26.9 °F 23.0 °F 66% 30.25 in 10.0 mi NNW 6.9 mph - N/A   Clear
3:53 AM 33.1 °F 26.1 °F 23.0 °F 66% 30.25 in 10.0 mi NNW 8.1 mph - N/A   Clear
4:53 AM 34.0 °F 28.0 °F 23.0 °F 64% 30.22 in 10.0 mi NNW 6.9 mph - N/A   Clear
5:53 AM 30.9 °F 23.5 °F 21.9 °F 69% 30.23 in 10.0 mi North 8.1 mph - N/A   Clear
6:53 AM 30.9 °F 24.3 °F 21.9 °F 69% 30.24 in 10.0 mi North 6.9 mph - N/A   Clear
7:53 AM 30.0 °F 26.5 °F 21.0 °F 69% 30.25 in 10.0 mi North 3.5 mph - N/A   Clear
8:53 AM 39.0 °F - 28.0 °F 65% 30.23 in 10.0 mi Calm Calm - N/A   Clear
9:53 AM 45.0 °F 41.8 °F 28.0 °F 52% 30.22 in 10.0 mi East 5.8 mph - N/A   Clear
10:53 AM 48.9 °F - 28.9 °F 46% 30.22 in 10.0 mi ESE 8.1 mph - N/A   Clear
11:53 AM 52.0 °F - 30.0 °F 43% 30.21 in 10.0 mi SSE 5.8 mph - N/A   Clear
12:53 PM 57.0 °F - 32.0 °F 39% 30.15 in 10.0 mi SSE 11.5 mph - N/A   Clear
1:53 PM 59.0 °F - 32.0 °F 36% 30.13 in 10.0 mi South 10.4 mph - N/A   Clear
2:53 PM 61.0 °F - 30.9 °F 32% 30.11 in 10.0 mi SSW 9.2 mph - N/A   Clear
3:53 PM 61.0 °F - 30.0 °F 31% 30.10 in 10.0 mi SSW 9.2 mph - N/A   Clear
4:53 PM 59.0 °F - 30.0 °F 33% 30.09 in 10.0 mi South 8.1 mph - N/A   Clear
5:53 PM 55.0 °F - 28.0 °F 35% 30.13 in 10.0 mi Calm Calm - N/A   Clear
6:53 PM 50.0 °F - 28.9 °F 44% 30.17 in 10.0 mi East 4.6 mph - N/A   Clear
7:53 PM 43.0 °F 37.7 °F 28.9 °F 58% 30.20 in 10.0 mi NE 9.2 mph - N/A   Clear
8:53 PM 41.0 °F 34.7 °F 30.9 °F 67% 30.22 in 10.0 mi North 10.4 mph - N/A   Clear
9:53 PM 39.9 °F 33.9 °F 30.0 °F 68% 30.24 in 10.0 mi NNE 9.2 mph - N/A   Clear
10:53 PM 41.0 °F 32.8 °F 27.0 °F 57% 30.26 in 10.0 mi NE 16.1 mph 25.3 mph N/A   Clear
11:53 PM 37.0 °F 25.1 °F 25.0 °F 62% 30.29 in 10.0 mi NNE 26.5 mph 29.9 mph N/A   Clear